EHI
0 0 0 0 0 0 0 0 0 0 0 0 0 0 0 0 0 0 0 0 0 1 0 0 0 0 0 0 0 0 0 0 0 0 0 0 0 0 0 0 0 0 0
0 0 0 0 0 0 0 0 0 0 0 0 0 0 0 0 0 0 0 0 0 1 0 0 0 0 0 0 0 0 0 0 0 0 0 0 0 0 0 0 0 0 0
0 0 0 0 0 0 0 0 0 0 0 0 0 0 0 0 0 0 0 0 0 0 0 0 0 1 1 0 0 0 0 0 0 0 0 0 0 0 0 0 0 0 0
0 0 0 0 0 0 0 0 0 0 0 0 0 0 0 0 0 0 0 0 0 0 0 0 0 1 1 0 0 0 0 0 0 0 0 0 0 0 0 0 0 0 0
0 0 0 0 0 0 0 0 0 0 0 0 0 0 0 0 0 0 0 0 0 0 0 0 0 1 1 1 0 0 0 0 0 0 0 0 0 0 0 0 0 0 0
0 0 0 0 0 0 0 0 0 0 0 0 0 0 0 0 0 0 0 0 0 0 0 0 0 0 0 1 0 0 0 0 0 0 0 0 0 0 0 0 0 0 0
0 0 0 0 0 0 0 0 0 0 0 0 0 0 0 0 0 0 0 0 0 0 0 0 0 0 0 0 0 0 0 0 0 0 0 0 0 0 0 0 0 0 0
0 0 0 0 0 0 0 0 0 0 0 0 0 0 0 0 0 0 0 0 0 0 0 0 0 0 0 0 0 0 0 1 1 0 0 0 0 0 0 0 0 0 0
1 0 0 0 0 0 0 0 0 0 0 0 0 0 0 0 0 0 0 0 0 0 0 0 0 0 0 0 0 0 0 1 1 1 2 1 0 0 0 0 0 0 0
2 1 0 0 0 0 0 0 0 0 0 0 0 0 0 0 0 0 0 0 0 0 0 0 0 0 0 0 0 0 0 1 1 2 3 2 1 0 0 0 0 0 0
3 2 1 0 0 0 0 0 0 0 0 0 0 0 0 0 0 0 0 0 0 0 0 0 0 0 0 0 0 0 0 0 0 1 2 2 1 0 0 0 0 0 0
3 2 2 1 0 0 0 0 0 0 0 0 0 0 0 0 0 0 0 0 0 0 0 0 0 0 0 0 0 0 0 0 0 0 1 1 1 0 0 0 0 0 0
3 3 2 2 1 1 0 0 0 0 0 0 0 0 0 0 0 0 0 0 0 0 0 0 0 0 0 0 0 0 0 0 0 0 0 0 0 0 0 0 0 0 0
3 3 1 1 1 1 1 1 0 0 0 0 0 0 0 0 0 0 0 0 0 0 0 0 0 0 0 0 0 0 0 0 0 0 0 0 0 0 0 0 0 0 0
2 2 1 0 1 1 2 2 1 0 0 0 0 0 0 0 0 0 0 0 0 0 0 0 0 0 0 0 0 0 0 0 0 0 0 0 0 0 0 0 0 0 0
1 1 0 0 0 1 2 3 2 1 0 0 0 0 0 0 0 0 0 0 0 0 0 0 0 0 0 0 0 0 0 0 0 0 0 0 0 0 0 0 0 0 0
0 0 0 0 0 0 1 3 3 2 1 0 0 0 0 0 0 0 0 0 0 0 0 0 0 0 0 0 0 0 0 0 0 0 0 0 0 0 0 0 0 0 0
0 0 0 0 0 0 1 2 3 3 2 1 0 0 0 0 0 0 0 0 0 0 0 0 0 0 0 0 0 0 0 0 0 0 0 0 0 0 0 0 0 0 0
1 1 0 0 0 0 0 1 3 3 2 1 0 0 0 0 0 0 0 0 0 0 0 0 0 0 0 0 0 0 0 0 0 0 0 0 0 0 0 0 0 0 0
2 2 2 1 1 1 1 1 2 2 1 0 0 0 0 0 0 0 0 0 0 0 0 0 0 0 0 0 0 0 0 0 0 0 0 0 0 0 0 0 0 0 0
4 4 4 4 3 3 2 1 1 1 0 0 0 0 0 0 0 0 0 0 0 0 0 0 0 0 0 0 0 0 0 0 0 0 0 0 0 0 0 0 0 0 0
4 5 5 5 5 5 3 1 0 0 0 0 0 0 0 0 0 0 0 0 0 0 0 0 0 0 0 0 0 0 0 0 0 0 0 0 0 0 0 0 0 0 0
5 4 3 3 4 4 2 0 0 0 0 0 0 0 0 0 0 0 0 0 0 0 0 0 0 0 0 0 0 0 0 0 0 0 0 0 0 0 0 0 0 0 0
4 3 2 2 2 1 0 0 0 0 0 0 0 0 0 0 0 0 0 0 0 0 0 0 0 0 0 0 0 0 0 0 0 0 0 0 0 0 0 0 0 0 0
3 3 3 2 1 0 0 0 0 0 0 0 0 0 0 0 0 0 0 0 0 0 0 0 0 0 0 0 0 0 0 0 0 0 0 0 0 0 0 0 0 0 0
3 3 3 2 1 0 0 0 0 0 0 0 0 0 0 0 0 0 0 0 0 0 0 0 0 0 0 0 0 0 0 0 0 0 0 0 0 0 0 0 0 0 0
Wind_Speed
4 3 2 2 2 2 2 2 1 1 1 2 3 6 5 5 5 3 3 11 12 11 12 11 11 10 10 10 10 9 9 10 10 9 9 9 9 9 9 9 9 8 7
5 4 3 2 2 2 2 2 3 2 1 2 4 5 5 5 5 4 3 6 11 11 11 11 11 10 10 10 9 9 9 9 9 9 8 8 8 8 8 8 9 8 7
5 5 4 3 2 2 2 2 2 2 2 2 3 4 4 5 5 5 4 3 4 8 10 10 10 10 10 10 9 9 9 8 9 9 8 8 8 7 7 7 8 8 7
6 5 4 3 2 2 2 2 2 2 2 2 2 2 3 4 5 5 4 3 3 3 6 10 9 9 10 10 10 10 9 9 9 9 9 9 8 8 8 8 8 7 7
6 5 4 3 3 3 2 2 2 2 2 2 2 2 2 3 4 5 4 4 4 3 3 6 9 9 10 10 10 10 10 10 10 10 10 10 10 9 8 8 8 8 8
6 5 4 3 4 3 2 2 3 2 2 2 2 2 1 1 2 3 4 4 4 5 4 4 4 5 9 9 9 9 9 10 10 10 10 10 10 9 9 9 9 9 9
6 5 4 3 4 3 3 3 3 3 1 2 3 2 3 2 1 2 3 3 4 4 4 4 3 3 3 7 8 8 9 9 10 10 10 10 10 10 10 10 10 9 9
6 6 5 4 4 3 4 3 3 2 1 2 3 3 2 3 3 1 1 3 4 3 4 6 4 4 3 2 5 8 8 8 9 10 10 9 9 9 9 10 10 10 10
6 5 6 5 4 4 3 3 3 4 2 0 2 4 3 3 2 3 1 1 2 3 3 4 5 5 5 4 3 6 8 8 8 9 9 9 8 8 9 10 10 10 10
6 6 6 5 4 4 4 3 3 3 3 1 0 0 2 4 3 1 3 1 1 3 4 4 5 5 5 4 5 7 8 8 8 8 8 8 8 8 8 9 10 10 10
5 6 6 5 5 4 4 4 3 3 3 3 2 1 1 1 2 3 1 2 2 2 3 4 3 4 5 5 4 7 9 9 8 7 7 8 8 8 8 9 10 10 10
3 5 5 5 5 4 4 4 4 4 3 3 2 2 2 2 2 2 2 2 2 3 2 2 3 4 4 5 7 10 10 9 9 8 7 7 7 8 8 9 10 10 10
3 5 5 5 4 4 4 4 4 4 3 3 3 2 2 2 2 3 3 2 2 2 2 2 3 4 5 4 5 10 10 11 10 9 9 8 8 8 8 8 9 9 10
4 5 5 5 6 5 5 4 3 3 3 3 3 2 1 1 2 3 3 3 1 2 2 3 2 4 4 4 7 10 7 11 11 11 11 10 9 9 8 8 9 9 8
5 6 6 6 6 6 5 5 3 3 3 3 3 2 1 1 1 1 2 3 4 2 3 3 3 3 4 4 7 6 6 10 12 12 12 11 11 10 10 10 9 9 9
5 6 6 6 6 5 5 5 3 3 4 3 2 2 2 1 1 1 1 2 3 4 3 3 3 3 3 4 7 6 7 10 12 13 13 12 12 12 12 11 11 11 10
6 7 7 6 6 6 6 5 5 5 5 4 3 3 3 2 1 1 1 1 2 3 3 3 2 2 2 3 3 3 4 5 6 12 13 13 13 13 13 13 12 12 12
7 7 7 7 7 6 6 7 6 5 5 5 4 4 4 2 2 1 1 1 1 2 3 3 2 1 2 3 3 3 4 5 5 9 12 13 13 13 13 13 13 13 13
6 6 6 6 6 6 6 6 6 5 5 5 5 5 4 3 3 2 2 2 1 1 2 2 2 2 2 1 1 2 3 3 4 6 9 11 12 12 12 13 13 13 13
7 6 6 6 6 6 6 6 5 5 4 4 4 4 4 5 5 4 3 3 2 1 1 1 2 2 2 2 1 2 3 2 3 4 5 5 7 10 11 12 12 13 13
7 6 5 4 4 4 5 5 5 5 4 3 3 3 3 4 5 4 3 3 3 2 2 2 2 2 2 1 2 2 3 3 3 2 2 3 2 3 5 8 11 12 12
5 5 5 5 4 3 4 6 5 4 4 3 2 2 2 2 3 4 4 3 4 3 3 2 2 3 3 3 2 2 2 2 3 2 1 3 2 3 4 4 8 10 11
5 5 4 4 4 3 5 6 7 4 3 3 3 2 2 1 2 2 2 3 2 3 4 3 3 4 3 3 2 2 2 3 4 3 1 4 3 4 5 5 8 8 9
4 4 4 4 3 2 3 4 5 4 3 3 3 3 2 1 1 2 1 1 1 2 3 3 3 4 4 3 3 3 4 3 4 3 2 3 3 3 4 4 6 7 7
4 3 3 3 3 2 2 3 4 3 3 2 2 2 1 1 1 1 1 0 1 3 3 3 4 4 5 5 3 1 1 1 3 3 2 2 3 3 3 4 4 6 6
5 5 5 4 4 4 4 5 4 3 3 2 2 2 3 2 2 2 1 1 1 2 3 3 3 4 4 4 3 2 2 2 2 3 2 1 2 2 3 3 3 3 3
Wind_Direction
162 162 168 172 174 171 168 169 175 169 148 135 133 138 142 145 150 157 167 173 169 168 168 169 170 169 168 169 168 166 165 164 163 160 158 158 158 159 158 155 153 152 150
161 157 161 162 166 170 165 158 157 136 126 113 114 129 139 146 157 162 165 177 178 176 176 175 177 176 175 175 176 175 175 174 171 169 167 166 166 166 167 166 164 162 161
155 150 152 153 164 155 138 116 108 93 104 107 112 130 143 153 160 168 169 168 180 186 185 184 185 184 184 183 184 183 183 181 180 179 178 176 175 176 176 175 173 173 171
151 146 147 152 147 127 118 114 103 89 86 107 123 139 145 155 165 172 172 173 176 186 193 192 190 190 193 192 193 192 191 191 188 188 188 188 188 189 188 186 185 184 184
149 144 143 144 133 118 114 127 106 113 116 123 141 136 146 158 168 173 177 184 188 190 194 202 197 196 201 200 199 198 196 197 197 197 197 198 199 199 198 198 196 196 195
147 141 142 141 130 118 114 113 114 102 125 141 119 105 116 168 166 174 187 186 190 199 198 203 197 209 211 207 204 205 205 205 205 205 205 207 205 203 203 204 206 206 205
147 144 143 140 136 136 148 139 118 103 93 109 83 42 5 4 147 175 174 177 192 197 191 195 195 202 217 216 210 209 211 213 210 211 212 213 213 211 210 211 211 213 213
155 157 149 151 146 135 133 129 120 115 85 112 120 97 32 352 344 345 179 186 192 184 190 199 197 200 207 204 216 213 212 214 216 216 217 217 217 216 215 216 216 217 218
156 153 154 151 149 145 150 150 136 132 136 61 135 140 143 207 291 326 295 198 179 181 199 198 200 205 205 203 211 220 215 213 215 219 220 218 217 217 218 220 220 220 221
160 158 154 153 149 148 154 159 145 140 137 135 26 138 160 155 149 279 321 306 212 200 204 204 202 204 203 200 205 209 213 210 213 217 217 214 214 216 221 224 226 226 226
163 162 158 152 151 152 157 150 135 132 137 145 153 141 100 91 123 140 225 291 305 256 220 207 199 199 200 198 201 209 209 208 209 213 215 214 215 217 221 226 229 229 231
164 164 159 155 158 158 162 157 146 139 143 143 143 139 146 151 178 157 178 223 247 268 246 222 208 206 205 200 209 208 207 206 208 210 213 215 218 221 225 229 229 231 235
172 179 165 162 163 168 168 157 150 155 157 152 158 161 164 180 176 159 152 183 236 280 287 252 225 212 211 201 213 211 210 207 210 213 215 218 221 224 229 231 232 235 239
178 175 169 171 171 171 171 161 154 169 166 162 164 161 165 187 168 164 158 149 143 311 306 272 265 222 215 202 215 208 211 211 213 215 219 222 225 228 232 232 233 234 237
174 174 172 175 179 176 171 163 169 181 169 172 176 177 183 207 159 164 158 154 151 178 259 267 265 245 216 208 215 206 210 217 217 220 223 226 229 231 233 234 234 234 236
171 168 173 177 180 179 174 169 170 181 178 188 188 182 192 205 176 128 140 149 152 161 216 255 247 249 220 217 212 209 219 224 225 227 230 232 233 235 235 236 235 236 238
174 176 179 179 180 180 179 177 186 184 188 202 206 198 214 200 181 158 132 133 149 156 201 267 266 264 213 225 216 220 231 230 235 235 236 238 239 240 240 240 240 240 240
179 180 177 181 187 186 183 184 195 194 195 205 212 206 221 209 200 204 173 185 194 186 186 241 279 275 235 229 223 224 232 231 234 241 239 241 242 243 243 244 244 245 245
174 176 173 184 191 190 190 191 192 194 198 204 205 201 209 193 208 216 207 209 225 214 179 198 260 276 274 265 234 251 250 255 251 247 241 242 243 245 247 248 248 248 248
172 175 179 184 190 189 189 192 189 191 191 199 201 199 200 193 202 206 211 217 215 221 206 203 249 273 272 277 233 248 272 264 261 266 260 250 248 249 251 253 253 252 249
177 173 172 175 178 180 189 185 183 184 184 193 203 208 215 208 205 201 206 212 208 216 224 223 245 268 272 275 251 241 249 273 275 258 269 272 263 261 259 257 256 254 251
166 157 166 170 170 187 182 181 179 182 176 181 198 217 224 214 211 201 202 193 188 197 216 220 236 241 256 252 252 243 244 272 284 282 262 279 259 264 263 251 254 255 254
161 158 171 169 175 191 183 178 179 170 164 177 188 192 210 207 198 196 214 209 204 214 204 199 221 236 242 238 235 251 238 233 244 256 238 275 271 266 268 271 266 261 258
161 163 164 170 173 197 183 173 174 165 159 174 182 180 186 222 205 184 185 208 251 260 243 218 226 243 246 245 230 233 240 256 268 266 205 250 267 264 277 272 270 266 268
139 136 137 141 132 93 105 134 147 133 126 121 113 110 134 129 355 141 127 193 295 302 294 270 260 268 272 270 254 251 281 272 281 279 232 222 262 274 274 269 269 273 279
127 119 101 93 99 84 71 89 120 119 114 101 72 62 69 76 53 85 117 132 297 301 328 343 334 317 305 303 286 231 230 243 267 280 273 244 265 289 296 281 275 277 281